QPF
0.00 0.01 0.00 0.00 0.01 0.01 0.02 0.02 0.02 0.03 0.06 0.07 0.05 0.04 0.08 0.04 0.03 0.03 0.03 0.02 0.02 0.01 0.01 0.01 0.01 0.01 0.02 0.01 0.01 0.01 0.01 0.01 0.02 0.02 0.02 0.03 0.02 0.01 0.02 0.02 0.02 0.02 0.03 0.03
0.00 0.01 0.00 0.00 0.00 0.01 0.01 0.01 0.01 0.02 0.03 0.04 0.05 0.06 0.09 0.06 0.05 0.04 0.03 0.02 0.02 0.01 0.01 0.00 0.01 0.01 0.01 0.01 0.01 0.00 0.00 0.01 0.02 0.02 0.03 0.03 0.02 0.01 0.01 0.02 0.03 0.03 0.02 0.03
0.00 0.00 0.00 0.00 0.00 0.00 0.01 0.01 0.00 0.01 0.02 0.02 0.05 0.08 0.12 0.10 0.07 0.05 0.03 0.03 0.02 0.01 0.01 0.01 0.02 0.02 0.01 0.01 0.01 0.00 0.01 0.01 0.01 0.03 0.04 0.03 0.02 0.01 0.02 0.02 0.02 0.02 0.02 0.03
0.00 0.00 0.00 0.00 0.00 0.00 0.00 0.00 0.00 0.01 0.02 0.03 0.03 0.07 0.09 0.12 0.13 0.09 0.05 0.04 0.04 0.02 0.02 0.02 0.03 0.03 0.02 0.01 0.01 0.00 0.00 0.00 0.00 0.01 0.02 0.03 0.04 0.03 0.02 0.01 0.02 0.02 0.02 0.03
0.00 0.00 0.00 0.00 0.00 0.00 0.00 0.00 0.01 0.01 0.01 0.02 0.04 0.06 0.09 0.10 0.13 0.13 0.08 0.04 0.04 0.03 0.02 0.02 0.03 0.04 0.04 0.02 0.01 0.00 0.00 0.00 0.00 0.00 0.00 0.01 0.02 0.04 0.04 0.03 0.03 0.02 0.02 0.01
0.00 0.00 0.00 0.00 0.00 0.00 0.00 0.00 0.00 0.01 0.01 0.02 0.04 0.06 0.10 0.08 0.08 0.09 0.08 0.05 0.04 0.04 0.03 0.03 0.03 0.04 0.07 0.04 0.01 0.01 0.01 0.01 0.00 0.00 0.00 0.01 0.01 0.02 0.02 0.02 0.02 0.02 0.02 0.02
0.00 0.00 0.00 0.00 0.00 0.00 0.00 0.00 0.00 0.01 0.02 0.03 0.04 0.07 0.07 0.09 0.10 0.09 0.09 0.08 0.03 0.04 0.04 0.07 0.08 0.05 0.03 0.02 0.02 0.02 0.02 0.01 0.01 0.00 0.00 0.01 0.01 0.02 0.01 0.01 0.01 0.02 0.02 0.02
0.00 0.00 0.00 0.00 0.00 0.00 0.00 0.00 0.01 0.02 0.03 0.03 0.03 0.07 0.10 0.12 0.14 0.12 0.06 0.03 0.03 0.04 0.04 0.04 0.05 0.03 0.05 0.04 0.03 0.03 0.03 0.02 0.01 0.01 0.01 0.01 0.01 0.01 0.01 0.01 0.01 0.01 0.02 0.02
0.00 0.00 0.00 0.00 0.00 0.00 0.00 0.00 0.01 0.01 0.01 0.04 0.05 0.07 0.14 0.15 0.18 0.14 0.05 0.03 0.03 0.05 0.03 0.03 0.04 0.02 0.04 0.04 0.03 0.03 0.04 0.02 0.01 0.01 0.01 0.01 0.01 0.02 0.02 0.02 0.03 0.02 0.02 0.02
0.00 0.00 0.00 0.00 0.00 0.00 0.00 0.00 0.01 0.01 0.02 0.07 0.09 0.10 0.16 0.17 0.13 0.17 0.07 0.04 0.05 0.05 0.03 0.03 0.03 0.02 0.02 0.02 0.03 0.04 0.05 0.04 0.03 0.02 0.02 0.02 0.03 0.05 0.06 0.06 0.06 0.06 0.05 0.04
0.00 0.00 0.00 0.00 0.00 0.00 0.00 0.00 0.00 0.00 0.01 0.05 0.09 0.08 0.06 0.08 0.09 0.06 0.07 0.07 0.04 0.03 0.03 0.04 0.05 0.03 0.03 0.02 0.03 0.05 0.05 0.05 0.05 0.05 0.06 0.07 0.08 0.09 0.12 0.12 0.12 0.11 0.08 0.06
0.00 0.00 0.00 0.01 0.01 0.00 0.00 0.00 0.00 0.00 0.01 0.02 0.04 0.04 0.04 0.07 0.09 0.04 0.04 0.07 0.07 0.04 0.03 0.04 0.04 0.03 0.04 0.04 0.04 0.05 0.05 0.05 0.05 0.06 0.07 0.09 0.11 0.12 0.14 0.15 0.16 0.13 0.08 0.06
0.00 0.00 0.00 0.01 0.01 0.00 0.00 0.00 0.00 0.00 0.01 0.02 0.03 0.05 0.07 0.10 0.09 0.10 0.09 0.07 0.06 0.05 0.04 0.04 0.04 0.03 0.05 0.04 0.06 0.06 0.04 0.04 0.04 0.05 0.08 0.11 0.13 0.12 0.13 0.14 0.15 0.15 0.10 0.08
0.00 0.00 0.00 0.00 0.00 0.00 0.00 0.00 0.00 0.01 0.01 0.02 0.03 0.04 0.05 0.08 0.08 0.12 0.10 0.05 0.03 0.02 0.02 0.02 0.02 0.02 0.06 0.05 0.05 0.04 0.03 0.03 0.02 0.02 0.03 0.04 0.06 0.07 0.09 0.10 0.09 0.08 0.07 0.06
0.00 0.00 0.00 0.00 0.00 0.00 0.00 0.00 0.00 0.00 0.01 0.01 0.03 0.03 0.04 0.06 0.05 0.05 0.07 0.05 0.03 0.02 0.02 0.02 0.02 0.02 0.03 0.03 0.04 0.03 0.02 0.01 0.01 0.01 0.02 0.02 0.03 0.03 0.06 0.06 0.04 0.03 0.02 0.02
0.00 0.00 0.00 0.00 0.00 0.00 0.00 0.00 0.00 0.00 0.01 0.01 0.02 0.04 0.05 0.05 0.04 0.03 0.04 0.04 0.03 0.02 0.02 0.02 0.02 0.03 0.03 0.03 0.03 0.02 0.02 0.01 0.01 0.01 0.01 0.02 0.04 0.03 0.04 0.05 0.04 0.02 0.01 0.02
0.00 0.00 0.00 0.00 0.00 0.00 0.00 0.00 0.00 0.01 0.01 0.01 0.01 0.03 0.04 0.04 0.03 0.03 0.04 0.03 0.02 0.03 0.03 0.03 0.02 0.02 0.02 0.02 0.01 0.01 0.01 0.02 0.01 0.02 0.03 0.05 0.07 0.04 0.04 0.05 0.04 0.02 0.02 0.02
0.00 0.00 0.00 0.00 0.01 0.01 0.01 0.01 0.01 0.01 0.02 0.02 0.01 0.01 0.01 0.02 0.02 0.03 0.03 0.04 0.03 0.04 0.04 0.04 0.02 0.01 0.01 0.01 0.01 0.01 0.02 0.02 0.02 0.03 0.03 0.03 0.02 0.03 0.04 0.05 0.05 0.04 0.02 0.02
0.00 0.00 0.00 0.00 0.01 0.02 0.01 0.01 0.01 0.01 0.03 0.03 0.02 0.01 0.01 0.02 0.02 0.03 0.03 0.03 0.02 0.03 0.03 0.03 0.01 0.01 0.01 0.01 0.01 0.01 0.01 0.01 0.01 0.01 0.01 0.01 0.02 0.02 0.02 0.02 0.03 0.04 0.03 0.03
0.00 0.01 0.01 0.00 0.01 0.02 0.01 0.01 0.01 0.01 0.02 0.02 0.02 0.02 0.02 0.03 0.03 0.02 0.02 0.01 0.01 0.01 0.01 0.01 0.01 0.01 0.01 0.01 0.01 0.00 0.00 0.00 0.01 0.01 0.01 0.01 0.01 0.01 0.02 0.02 0.03 0.03 0.04 0.03
0.01 0.01 0.01 0.01 0.02 0.02 0.02 0.00 0.00 0.01 0.02 0.01 0.02 0.02 0.03 0.05 0.06 0.03 0.02 0.01 0.01 0.01 0.00 0.01 0.01 0.01 0.01 0.01 0.01 0.01 0.00 0.00 0.01 0.01 0.01 0.01 0.01 0.02 0.02 0.03 0.02 0.03 0.03 0.04
0.01 0.01 0.01 0.01 0.01 0.03 0.05 0.02 0.01 0.01 0.01 0.01 0.01 0.01 0.01 0.01 0.02 0.02 0.02 0.02 0.01 0.01 0.01 0.01 0.01 0.01 0.00 0.00 0.00 0.01 0.01 0.01 0.01 0.01 0.02 0.02 0.02 0.02 0.02 0.02 0.02 0.03 0.03 0.03
0.02 0.02 0.02 0.01 0.01 0.02 0.02 0.02 0.02 0.01 0.01 0.01 0.01 0.01 0.02 0.04 0.03 0.02 0.03 0.04 0.03 0.01 0.01 0.01 0.01 0.00 0.00 0.00 0.00 0.01 0.01 0.01 0.01 0.02 0.02 0.02 0.02 0.02 0.02 0.02 0.03 0.03 0.03 0.03
0.01 0.02 0.02 0.02 0.04 0.03 0.03 0.02 0.02 0.02 0.02 0.02 0.02 0.01 0.02 0.03 0.03 0.03 0.03 0.03 0.03 0.01 0.01 0.00 0.00 0.00 0.01 0.01 0.01 0.01 0.01 0.02 0.02 0.02 0.02 0.02 0.02 0.02 0.02 0.02 0.03 0.03 0.04 0.04
0.02 0.03 0.04 0.05 0.06 0.04 0.02 0.02 0.01 0.01 0.01 0.02 0.02 0.02 0.02 0.02 0.01 0.02 0.04 0.03 0.02 0.02 0.01 0.01 0.01 0.01 0.01 0.02 0.02 0.03 0.02 0.02 0.03 0.03 0.04 0.04 0.03 0.03 0.03 0.03 0.03 0.04 0.05 0.05
0.03 0.03 0.04 0.04 0.05 0.05 0.03 0.01 0.01 0.01 0.01 0.01 0.02 0.03 0.03 0.03 0.02 0.02 0.02 0.03 0.03 0.02 0.01 0.01 0.01 0.02 0.01 0.02 0.02 0.03 0.03 0.04 0.04 0.05 0.06 0.05 0.05 0.04 0.04 0.05 0.05 0.06 0.06 0.06
MSLP
1005.70 1006.22 1006.54 1006.71 1006.82 1006.96 1007.24 1007.71 1008.36 1009.12 1009.92 1010.63 1011.16 1011.44 1011.47 1011.26 1010.90 1010.48 1010.08 1009.77 1009.57 1009.49 1009.49 1009.54 1009.59 1009.63 1009.65 1009.67 1009.73 1009.83 1010.01 1010.24 1010.50 1010.75 1010.93 1011.01 1010.95 1010.76 1010.47 1010.13 1009.79 1009.50 1009.29 1009.17
1006.30 1006.58 1006.62 1006.52 1006.41 1006.42 1006.65 1007.14 1007.88 1008.77 1009.67 1010.46 1011.03 1011.29 1011.24 1010.93 1010.46 1009.94 1009.47 1009.13 1008.95 1008.91 1008.98 1009.10 1009.21 1009.28 1009.30 1009.31 1009.33 1009.41 1009.57 1009.80 1010.09 1010.38 1010.62 1010.74 1010.73 1010.56 1010.27 1009.90 1009.52 1009.18 1008.92 1008.76
1006.68 1006.70 1006.49 1006.17 1005.90 1005.83 1006.06 1006.63 1007.48 1008.50 1009.51 1010.37 1010.94 1011.15 1010.99 1010.54 1009.93 1009.28 1008.73 1008.35 1008.19 1008.21 1008.37 1008.58 1008.77 1008.90 1008.95 1008.96 1008.96 1009.00 1009.13 1009.35 1009.65 1009.97 1010.26 1010.44 1010.48 1010.37 1010.11 1009.75 1009.35 1008.98 1008.68 1008.47
1006.78 1006.58 1006.17 1005.69 1005.34 1005.27 1005.58 1006.28 1007.28 1008.44 1009.56 1010.46 1011.00 1011.11 1010.80 1010.17 1009.37 1008.57 1007.90 1007.48 1007.32 1007.40 1007.65 1007.97 1008.26 1008.47 1008.58 1008.61 1008.61 1008.63 1008.73 1008.94 1009.23 1009.57 1009.90 1010.15 1010.27 1010.22 1010.03 1009.71 1009.34 1008.96 1008.62 1008.37
1006.64 1006.26 1005.70 1005.16 1004.82 1004.84 1005.29 1006.16 1007.34 1008.65 1009.85 1010.76 1011.23 1011.20 1010.70 1009.85 1008.83 1007.85 1007.05 1006.55 1006.38 1006.51 1006.86 1007.30 1007.71 1008.03 1008.22 1008.30 1008.31 1008.33 1008.41 1008.59 1008.88 1009.24 1009.61 1009.92 1010.12 1010.17 1010.06 1009.82 1009.49 1009.12 1008.78 1008.48
1006.32 1005.81 1005.19 1004.66 1004.41 1004.57 1005.21 1006.28 1007.64 1009.07 1010.33 1011.22 1011.58 1011.38 1010.67 1009.58 1008.34 1007.16 1006.22 1005.64 1005.45 1005.63 1006.06 1006.62 1007.16 1007.61 1007.90 1008.05 1008.10 1008.13 1008.20 1008.38 1008.66 1009.03 1009.43 1009.80 1010.08 1010.22 1010.21 1010.05 1009.79 1009.46 1009.12 1008.79
1005.91 1005.33 1004.72 1004.26 1004.15 1004.49 1005.33 1006.59 1008.09 1009.61 1010.88 1011.70 1011.94 1011.55 1010.63 1009.32 1007.88 1006.53 1005.46 1004.81 1004.62 1004.83 1005.35 1006.02 1006.69 1007.25 1007.65 1007.89 1008.00 1008.06 1008.15 1008.33 1008.60 1008.98 1009.40 1009.82 1010.16 1010.38 1010.45 1010.38 1010.20 1009.92 1009.61 1009.27
1005.53 1004.93 1004.36 1004.02 1004.06 1004.58 1005.58 1006.97 1008.56 1010.09 1011.32 1012.04 1012.14 1011.59 1010.49 1009.02 1007.43 1005.97 1004.83 1004.15 1003.96 1004.22 1004.80 1005.57 1006.35 1007.03 1007.54 1007.87 1008.05 1008.16 1008.28 1008.46 1008.74 1009.11 1009.54 1009.97 1010.36 1010.63 1010.77 1010.78 1010.65 1010.43 1010.15 1009.83
1005.22 1004.65 1004.17 1003.95 1004.12 1004.77 1005.87 1007.31 1008.89 1010.36 1011.49 1012.09 1012.05 1011.37 1010.17 1008.62 1006.99 1005.50 1004.37 1003.71 1003.56 1003.86 1004.51 1005.35 1006.21 1006.98 1007.58 1007.99 1008.25 1008.42 1008.57 1008.77 1009.05 1009.42 1009.84 1010.26 1010.65 1010.95 1011.12 1011.17 1011.09 1010.92 1010.68 1010.39
1005.06 1004.55 1004.16 1004.04 1004.31 1005.01 1006.12 1007.50 1008.97 1010.30 1011.28 1011.73 1011.58 1010.83 1009.61 1008.10 1006.53 1005.13 1004.10 1003.52 1003.45 1003.81 1004.51 1005.39 1006.30 1007.11 1007.77 1008.25 1008.58 1008.81 1009.00 1009.23 1009.52 1009.87 1010.26 1010.66 1011.02 1011.30 1011.47 1011.52 1011.47 1011.33 1011.12 1010.86
1005.03 1004.61 1004.31 1004.27 1004.57 1005.25 1006.26 1007.48 1008.75 1009.86 1010.63 1010.93 1010.69 1009.94 1008.80 1007.43 1006.05 1004.86 1004.01 1003.59 1003.63 1004.06 1004.79 1005.67 1006.58 1007.40 1008.08 1008.60 1008.98 1009.26 1009.50 1009.76 1010.06 1010.40 1010.77 1011.12 1011.43 1011.66 1011.79 1011.81 1011.75 1011.62 1011.43 1011.22
1005.11 1004.79 1004.58 1004.58 1004.86 1005.43 1006.26 1007.24 1008.23 1009.06 1009.60 1009.74 1009.45 1008.76 1007.78 1006.65 1005.56 1004.65 1004.06 1003.85 1004.02 1004.52 1005.26 1006.12 1006.98 1007.77 1008.43 1008.95 1009.36 1009.69 1009.99 1010.29 1010.61 1010.95 1011.29 1011.59 1011.84 1012.00 1012.06 1012.04 1011.94 1011.80 1011.63 1011.44
1005.27 1005.05 1004.91 1004.92 1005.14 1005.56 1006.14 1006.82 1007.48 1008.00 1008.29 1008.28 1007.96 1007.37 1006.60 1005.77 1005.02 1004.46 1004.17 1004.19 1004.51 1005.07 1005.80 1006.60 1007.38 1008.09 1008.70 1009.21 1009.64 1010.01 1010.37 1010.72 1011.09 1011.44 1011.76 1012.03 1012.21 1012.30 1012.29 1012.21 1012.07 1011.90 1011.73 1011.56
1005.47 1005.34 1005.25 1005.26 1005.38 1005.62 1005.93 1006.28 1006.59 1006.79 1006.82 1006.67 1006.33 1005.86 1005.32 1004.81 1004.42 1004.21 1004.23 1004.49 1004.94 1005.56 1006.26 1006.98 1007.66 1008.28 1008.83 1009.31 1009.74 1010.16 1010.58 1011.00 1011.42 1011.81 1012.14 1012.38 1012.52 1012.55 1012.49 1012.34 1012.16 1011.97 1011.78 1011.62
1005.70 1005.64 1005.59 1005.57 1005.59 1005.63 1005.68 1005.70 1005.67 1005.55 1005.34 1005.04 1004.68 1004.31 1003.99 1003.78 1003.71 1003.83 1004.13 1004.60 1005.18 1005.84 1006.50 1007.14 1007.73 1008.26 1008.74 1009.19 1009.64 1010.11 1010.60 1011.10 1011.59 1012.03 1012.38 1012.63 1012.75 1012.75 1012.64 1012.46 1012.25 1012.03 1011.83 1011.68
1005.99 1005.96 1005.93 1005.87 1005.78 1005.64 1005.44 1005.16 1004.81 1004.40 1003.96 1003.51 1003.11 1002.81 1002.65 1002.67 1002.88 1003.26 1003.80 1004.44 1005.12 1005.81 1006.45 1007.03 1007.54 1007.99 1008.43 1008.87 1009.35 1009.87 1010.44 1011.02 1011.59 1012.09 1012.49 1012.76 1012.89 1012.88 1012.76 1012.56 1012.34 1012.11 1011.91 1011.76
1006.34 1006.33 1006.28 1006.18 1005.98 1005.68 1005.26 1004.72 1004.10 1003.42 1002.75 1002.16 1001.69 1001.41 1001.35 1001.53 1001.92 1002.50 1003.20 1003.97 1004.74 1005.46 1006.09 1006.63 1007.10 1007.53 1007.95 1008.41 1008.93 1009.51 1010.16 1010.82 1011.46 1012.03 1012.48 1012.79 1012.94 1012.94 1012.83 1012.64 1012.42 1012.20 1012.01 1011.86
1006.82 1006.77 1006.68 1006.51 1006.22 1005.78 1005.17 1004.42 1003.57 1002.67 1001.80 1001.06 1000.50 1000.18 1000.14 1000.39 1000.89 1001.58 1002.39 1003.25 1004.08 1004.83 1005.49 1006.04 1006.52 1006.96 1007.41 1007.91 1008.48 1009.13 1009.84 1010.57 1011.27 1011.88 1012.38 1012.71 1012.89 1012.93 1012.84 1012.68 1012.48 1012.28 1012.11 1011.97
1007.42 1007.30 1007.15 1006.90 1006.52 1005.95 1005.20 1004.28 1003.24 1002.16 1001.13 1000.24 999.57 999.18 999.11 999.36 999.88 1000.62 1001.48 1002.38 1003.27 1004.08 1004.78 1005.38 1005.91 1006.41 1006.92 1007.48 1008.11 1008.82 1009.58 1010.34 1011.07 1011.71 1012.22 1012.57 1012.77 1012.82 1012.77 1012.64 1012.48 1012.32 1012.17 1012.06
1008.12 1007.91 1007.67 1007.34 1006.86 1006.19 1005.33 1004.29 1003.12 1001.91 1000.74 999.73 998.95 998.47 998.33 998.53 999.03 999.75 1000.62 1001.55 1002.48 1003.34 1004.11 1004.79 1005.41 1005.99 1006.58 1007.21 1007.90 1008.65 1009.42 1010.19 1010.91 1011.54 1012.03 1012.38 1012.58 1012.64 1012.60 1012.51 1012.38 1012.26 1012.15 1012.06
1008.86 1008.54 1008.20 1007.77 1007.20 1006.46 1005.51 1004.40 1003.15 1001.86 1000.62 999.52 998.65 998.09 997.87 998.00 998.43 999.12 999.97 1000.91 1001.86 1002.78 1003.62 1004.39 1005.10 1005.77 1006.44 1007.13 1007.86 1008.62 1009.39 1010.13 1010.81 1011.39 1011.84 1012.15 1012.32 1012.38 1012.35 1012.27 1012.18 1012.08 1012.01 1011.95
1009.54 1009.11 1008.66 1008.13 1007.49 1006.68 1005.70 1004.55 1003.29 1001.98 1000.71 999.58 998.67 998.05 997.76 997.82 998.19 998.82 999.63 1000.56 1001.52 1002.47 1003.38 1004.22 1005.00 1005.75 1006.48 1007.22 1007.96 1008.70 1009.44 1010.12 1010.73 1011.24 1011.63 1011.88 1012.02 1012.06 1012.02 1011.95 1011.86 1011.79 1011.74 1011.71
1010.05 1009.51 1008.96 1008.35 1007.64 1006.80 1005.81 1004.68 1003.45 1002.18 1000.95 999.85 998.95 998.32 998.01 998.02 998.33 998.90 999.66 1000.54 1001.49 1002.45 1003.37 1004.25 1005.08 1005.87 1006.63 1007.38 1008.11 1008.82 1009.49 1010.10 1010.64 1011.07 1011.38 1011.58 1011.68 1011.68 1011.63 1011.55 1011.46 1011.40 1011.35 1011.34
1010.30 1009.68 1009.03 1008.35 1007.60 1006.75 1005.79 1004.72 1003.58 1002.41 1001.28 1000.27 999.44 998.85 998.54 998.53 998.80 999.31 1000.00 1000.83 1001.73 1002.65 1003.56 1004.43 1005.25 1006.04 1006.78 1007.50 1008.19 1008.85 1009.46 1010.01 1010.47 1010.83 1011.09 1011.24 1011.30 1011.27 1011.20 1011.10 1011.01 1010.93 1010.88 1010.86
1010.26 1009.56 1008.85 1008.12 1007.34 1006.51 1005.61 1004.63 1003.62 1002.59 1001.62 1000.74 1000.03 999.53 999.27 999.27 999.51 999.97 1000.59 1001.34 1002.15 1002.99 1003.83 1004.63 1005.40 1006.14 1006.83 1007.50 1008.13 1008.73 1009.28 1009.77 1010.18 1010.50 1010.73 1010.85 1010.89 1010.85 1010.76 1010.65 1010.54 1010.44 1010.37 1010.33
1009.96 1009.21 1008.45 1007.69 1006.91 1006.11 1005.29 1004.43 1003.57 1002.71 1001.92 1001.22 1000.66 1000.27 1000.09 1000.12 1000.34 1000.75 1001.30 1001.94 1002.64 1003.36 1004.08 1004.78 1005.45 1006.09 1006.70 1007.29 1007.86 1008.40 1008.91 1009.37 1009.76 1010.07 1010.29 1010.42 1010.46 1010.43 1010.34 1010.21 1010.08 1009.95 1009.85 1009.79
Thickness
5839 5820 5808 5816 5822 5821 5816 5807 5801 5811 5827 5817 5807 5804 5808 5814 5813 5810 5807 5806 5806 5807 5810 5811 5810 5809 5805 5802 5799 5796 5793 5792 5790 5787 5783 5780 5777 5777 5776 5777 5776 5775 5773 5771
5816 5811 5831 5840 5837 5829 5819 5806 5804 5813 5826 5817 5804 5801 5809 5813 5813 5814 5810 5808 5808 5806 5806 5807 5807 5806 5802 5799 5797 5794 5792 5791 5789 5787 5784 5781 5778 5776 5775 5775 5774 5773 5772 5770
5808 5825 5845 5839 5830 5822 5816 5810 5811 5809 5817 5815 5801 5788 5795 5807 5813 5814 5813 5812 5812 5809 5805 5805 5804 5802 5801 5798 5796 5795 5792 5790 5788 5786 5783 5780 5776 5774 5771 5770 5770 5770 5770 5768
5820 5840 5841 5832 5827 5826 5811 5830 5827 5819 5800 5783 5791 5761 5782 5794 5799 5805 5807 5808 5807 5808 5807 5804 5802 5800 5799 5798 5797 5794 5791 5789 5787 5785 5781 5776 5771 5767 5767 5767 5767 5767 5767 5765
5819 5836 5833 5827 5833 5837 5827 5839 5830 5819 5799 5783 5783 5765 5771 5788 5787 5796 5804 5807 5808 5809 5808 5805 5804 5802 5801 5799 5796 5794 5790 5788 5786 5783 5780 5775 5771 5768 5767 5766 5765 5764 5763 5762
5828 5845 5843 5841 5849 5850 5842 5829 5817 5802 5786 5762 5773 5763 5762 5779 5790 5799 5805 5810 5810 5810 5808 5806 5805 5803 5800 5798 5795 5792 5788 5785 5784 5781 5778 5774 5769 5767 5764 5762 5760 5759 5758 5757
5813 5829 5845 5852 5836 5838 5830 5795 5768 5762 5751 5753 5774 5767 5769 5795 5806 5808 5808 5809 5811 5810 5805 5801 5800 5798 5796 5794 5792 5790 5786 5783 5782 5779 5776 5773 5770 5766 5762 5759 5757 5755 5753 5752
5789 5794 5829 5843 5834 5820 5819 5797 5764 5749 5743 5750 5767 5762 5777 5804 5811 5813 5813 5812 5810 5805 5802 5800 5799 5797 5795 5793 5790 5787 5784 5781 5779 5777 5774 5772 5769 5765 5762 5759 5756 5753 5751 5750
5789 5793 5833 5844 5846 5833 5814 5800 5796 5769 5757 5745 5752 5766 5783 5802 5803 5805 5805 5805 5804 5802 5801 5799 5798 5797 5794 5790 5788 5786 5783 5779 5777 5775 5771 5768 5766 5763 5760 5757 5754 5752 5750 5749
5807 5794 5817 5835 5840 5834 5826 5811 5783 5764 5743 5734 5745 5752 5758 5779 5789 5794 5796 5797 5799 5800 5799 5797 5797 5795 5793 5790 5788 5784 5781 5777 5775 5772 5769 5766 5763 5761 5758 5755 5751 5748 5746 5745
5813 5790 5798 5812 5810 5807 5811 5803 5784 5765 5757 5736 5729 5745 5784 5786 5793 5792 5794 5795 5797 5797 5796 5795 5794 5793 5791 5788 5784 5781 5777 5774 5771 5769 5765 5762 5759 5757 5754 5750 5747 5745 5742 5740
5810 5786 5776 5794 5818 5828 5817 5805 5787 5764 5754 5748 5737 5750 5798 5796 5796 5795 5794 5797 5798 5797 5796 5793 5792 5790 5786 5782 5780 5777 5774 5770 5768 5766 5762 5758 5755 5753 5750 5747 5744 5742 5738 5735
5807 5779 5759 5767 5785 5804 5804 5806 5797 5777 5760 5746 5738 5754 5792 5793 5793 5795 5795 5794 5794 5793 5792 5789 5787 5784 5781 5778 5776 5773 5770 5767 5765 5762 5758 5754 5751 5748 5745 5743 5741 5738 5734 5731
5812 5777 5763 5756 5765 5784 5789 5796 5797 5779 5755 5748 5754 5762 5777 5784 5786 5789 5790 5790 5789 5789 5789 5786 5782 5779 5777 5775 5771 5768 5765 5763 5761 5757 5753 5749 5746 5743 5741 5738 5736 5733 5730 5727
5798 5776 5780 5781 5791 5794 5791 5791 5791 5781 5772 5760 5763 5767 5776 5784 5786 5787 5787 5785 5783 5782 5782 5781 5777 5774 5772 5768 5766 5763 5761 5758 5755 5750 5746 5743 5741 5739 5736 5733 5731 5729 5726 5723
5783 5772 5773 5773 5787 5787 5782 5786 5786 5783 5780 5774 5771 5768 5784 5786 5785 5781 5780 5779 5775 5775 5775 5774 5773 5769 5766 5763 5761 5759 5756 5754 5750 5745 5741 5738 5735 5732 5730 5728 5726 5723 5720 5717
5769 5762 5752 5748 5767 5770 5757 5774 5778 5777 5779 5775 5764 5770 5781 5777 5776 5774 5775 5775 5771 5770 5770 5767 5765 5764 5761 5759 5758 5754 5752 5748 5744 5740 5737 5734 5731 5728 5725 5723 5719 5716 5714 5712
5762 5751 5738 5737 5747 5732 5754 5781 5784 5775 5773 5777 5776 5778 5779 5776 5774 5774 5775 5771 5767 5766 5764 5762 5760 5758 5757 5755 5753 5750 5746 5742 5737 5734 5731 5729 5726 5722 5719 5716 5713 5710 5708 5706
5767 5752 5734 5723 5723 5732 5756 5773 5775 5764 5755 5769 5769 5770 5771 5772 5766 5762 5769 5769 5766 5764 5762 5759 5757 5754 5752 5749 5747 5743 5738 5734 5730 5727 5724 5722 5720 5716 5713 5709 5707 5705 5703 5700
5759 5750 5732 5721 5718 5715 5741 5770 5781 5765 5740 5761 5765 5762 5762 5761 5743 5746 5760 5762 5760 5758 5756 5754 5752 5749 5745 5742 5740 5735 5729 5726 5722 5721 5719 5718 5715 5711 5707 5704 5702 5700 5697 5695
5732 5729 5723 5716 5712 5721 5751 5769 5770 5734 5732 5757 5759 5757 5755 5750 5747 5750 5753 5752 5751 5749 5748 5746 5743 5739 5736 5735 5732 5726 5722 5718 5718 5716 5714 5711 5709 5706 5703 5700 5696 5693 5691 5688
5717 5712 5711 5708 5704 5713 5751 5755 5741 5737 5750 5753 5752 5752 5750 5747 5746 5745 5743 5741 5740 5738 5737 5735 5732 5728 5727 5727 5723 5718 5714 5714 5713 5710 5707 5704 5702 5700 5698 5694 5690 5687 5683 5680
5714 5715 5711 5711 5712 5731 5744 5745 5747 5748 5745 5745 5744 5745 5744 5740 5736 5734 5732 5730 5730 5729 5727 5724 5721 5718 5717 5717 5714 5709 5707 5707 5705 5702 5699 5697 5695 5693 5690 5687 5683 5679 5676 5673
5713 5718 5712 5710 5718 5728 5735 5739 5742 5743 5741 5741 5740 5737 5736 5730 5727 5725 5723 5721 5720 5719 5717 5713 5710 5707 5706 5706 5705 5702 5701 5700 5697 5693 5691 5689 5686 5683 5681 5678 5675 5671 5669 5666
5703 5705 5700 5700 5710 5717 5723 5728 5732 5734 5734 5733 5731 5730 5728 5725 5720 5717 5714 5712 5710 5708 5706 5703 5699 5697 5697 5697 5696 5695 5693 5691 5688 5685 5682 5679 5677 5674 5672 5669 5666 5665 5663 5661
5696 5695 5691 5691 5703 5703 5707 5719 5726 5724 5722 5722 5720 5718 5718 5718 5714 5710 5705 5703 5701 5699 5696 5693 5691 5688 5687 5687 5685 5685 5684 5682 5678 5675 5672 5669 5667 5665 5663 5660 5658 5657 5655 5654